EHI
3 9 15 14 6 3 1 0 1 0 0 0 0 3 10 14 15 15 21 44 66 60 47 45 36 18 6 4 2 1 0 0 0 0 0 0 0 0 0 0 0 0 0 0 0 0 0 0 0
4 10 13 9 5 2 1 0 1 1 0 0 1 5 12 18 19 20 30 53 66 57 45 43 36 20 8 4 3 1 0 0 0 0 0 0 0 0 0 0 0 0 0 0 0 0 0 0 0
5 8 7 4 3 2 0 0 1 1 1 1 4 11 20 24 25 28 42 61 66 56 46 45 39 24 12 7 4 2 0 0 0 0 0 0 0 0 0 0 0 0 0 0 0 0 0 0 0
4 4 2 1 1 1 0 0 0 1 1 3 11 24 31 28 25 32 45 59 63 55 47 47 42 29 17 12 8 4 1 0 0 0 0 0 0 0 0 0 0 0 0 0 0 0 0 0 0
2 1 0 0 0 0 0 0 0 1 3 6 18 35 37 27 23 29 39 49 54 51 45 43 39 29 19 13 8 4 1 0 0 0 0 0 0 0 0 0 0 0 0 0 0 0 0 0 0
1 0 0 0 0 0 0 0 0 2 4 8 21 38 37 25 22 25 29 37 46 49 43 37 33 25 16 9 4 1 0 0 0 0 0 0 0 0 0 0 0 0 0 0 0 0 0 0 0
0 0 1 0 0 0 1 0 0 2 5 8 20 37 40 30 22 22 24 29 40 47 40 29 24 19 11 4 1 0 0 0 0 0 0 0 0 0 0 0 0 0 0 0 0 0 0 0 0
0 0 0 0 0 0 0 0 0 2 5 9 20 37 46 36 23 22 24 29 41 45 34 21 15 11 5 1 0 0 0 0 0 0 0 0 0 0 0 1 1 0 0 0 0 0 0 0 0
0 0 0 0 0 0 0 0 0 2 6 13 26 44 52 42 29 28 31 39 52 52 34 18 13 9 3 0 0 0 0 0 0 0 0 0 0 0 1 2 2 1 0 0 0 0 0 0 0
0 0 0 0 0 0 0 0 0 2 8 20 35 50 53 46 39 35 37 49 64 61 40 25 22 16 9 6 4 1 0 0 0 0 0 0 1 1 3 5 4 2 0 0 0 0 0 0 0
0 0 0 0 0 0 0 0 1 4 12 23 36 46 50 50 46 43 46 58 70 66 51 43 38 31 24 18 10 3 1 1 2 3 2 2 3 5 7 8 6 3 1 1 0 0 0 0 0
0 0 0 0 0 0 0 0 1 6 15 25 33 42 49 51 51 54 62 71 75 69 64 62 55 48 45 34 18 9 7 8 11 12 8 6 6 9 12 12 9 7 4 3 2 2 2 2 1
0 0 0 0 0 0 0 1 2 8 17 25 31 39 48 52 56 65 73 77 77 72 71 72 69 65 61 49 31 21 19 19 22 21 14 11 11 12 14 15 13 10 8 7 7 7 5 3 2
0 0 0 0 0 0 0 2 4 10 17 23 29 38 44 48 56 66 73 75 76 75 75 75 74 71 65 53 42 37 31 29 29 25 18 15 15 15 14 12 10 9 10 10 11 10 7 3 1
0 0 0 0 0 0 0 3 7 13 16 21 28 37 41 44 50 59 67 72 75 77 76 72 67 65 59 48 43 42 38 34 32 29 22 18 17 15 11 7 5 5 8 10 10 8 5 2 0
0 0 0 0 0 0 0 4 10 14 16 19 25 33 39 42 44 51 60 66 70 74 72 62 55 54 52 47 42 41 40 38 34 30 23 18 15 11 8 7 6 5 6 7 6 4 2 0 0
0 0 0 0 0 0 0 5 11 15 15 17 21 28 36 40 41 45 52 57 62 66 63 57 54 53 51 47 45 44 43 39 33 28 23 18 14 9 7 10 10 6 5 5 3 2 0 0 0
0 0 0 0 0 0 1 5 10 14 14 14 18 25 33 40 41 41 43 46 51 56 55 54 58 58 52 47 45 44 41 34 28 25 23 20 14 8 8 11 10 6 6 6 4 2 0 0 0
0 0 0 0 0 0 1 4 8 13 14 14 17 24 33 39 38 36 36 36 39 45 47 49 54 56 52 47 44 43 36 26 21 21 22 19 12 7 7 9 9 7 9 9 5 2 1 0 0
0 0 0 0 0 0 1 4 9 13 14 14 18 26 32 33 32 32 31 30 31 35 40 42 44 46 47 45 43 42 34 21 16 18 20 16 11 7 7 8 7 8 12 10 5 2 1 0 0
0 0 0 0 0 0 1 5 13 17 14 14 19 27 31 30 30 31 28 26 25 26 30 33 34 37 41 42 40 37 30 18 14 19 19 15 12 9 8 6 6 8 10 9 6 3 2 0 0
0 0 0 0 0 0 0 5 14 20 17 17 20 25 31 32 32 31 25 21 19 20 23 26 28 32 37 39 38 33 24 16 17 23 24 20 16 12 8 5 6 7 8 8 6 3 1 0 0
0 0 0 0 0 0 0 3 10 17 19 22 22 23 28 31 30 28 23 17 15 17 20 24 28 32 35 37 37 31 21 16 21 28 31 27 20 12 6 5 6 6 6 6 6 3 1 0 0
0 0 0 0 0 0 0 1 4 10 14 20 23 23 24 25 24 24 22 18 15 16 19 25 31 34 34 35 34 29 23 21 26 31 31 27 19 12 6 6 7 7 6 6 5 2 0 0 0
0 0 0 0 1 0 0 0 1 3 7 13 19 22 22 20 20 21 21 20 18 18 21 26 32 36 36 34 33 32 28 26 29 29 25 19 14 13 12 10 9 8 6 5 3 1 0 0 0
0 0 0 0 0 0 0 0 0 1 3 9 15 20 22 19 17 17 19 21 20 20 23 29 34 39 40 38 39 37 31 26 25 25 20 13 10 13 15 14 10 7 5 5 3 1 0 0 1
0 0 0 0 0 0 0 0 0 0 2 7 14 18 20 20 17 17 19 22 23 25 31 38 44 46 44 42 41 37 29 23 21 22 19 14 10 11 13 12 9 7 6 6 5 3 1 1 2
0 0 0 0 0 0 0 0 0 0 1 5 11 15 18 19 20 21 23 26 29 34 42 49 52 52 49 43 37 32 27 23 22 23 21 17 15 13 11 9 9 9 8 7 6 4 3 3 3
0 0 0 0 0 0 0 0 0 0 2 4 8 13 17 19 22 25 30 35 39 42 46 51 52 51 49 43 37 33 31 26 23 24 23 21 21 19 14 11 12 12 10 9 7 5 4 4 4
0 0 0 0 0 0 0 0 0 1 2 4 7 13 18 21 24 27 35 42 45 44 45 48 49 47 45 42 40 40 37 29 25 24 24 24 25 23 17 13 13 13 11 9 7 5 4 5 5
Wind_Speed
10 12 11 8 7 5 10 6 6 9 7 9 8 7 11 13 10 9 11 19 23 22 19 18 16 16 15 14 14 14 14 13 13 13 12 12 12 12 12 12 12 12 12 12 12 12 12 11 11
11 14 11 8 8 6 6 3 7 8 8 7 6 6 10 13 13 13 14 20 24 22 18 17 18 16 16 15 15 14 14 14 13 12 12 12 11 11 11 12 12 12 12 12 12 12 12 11 10
14 17 10 9 11 8 2 3 6 6 7 4 5 7 9 9 10 11 16 21 22 20 17 18 19 17 16 16 15 14 14 14 13 12 12 12 11 11 11 11 12 12 12 12 12 11 11 10 9
10 10 9 8 10 8 4 5 4 3 5 3 5 8 9 8 8 13 18 21 22 20 19 18 19 18 16 16 15 14 14 13 13 12 12 11 11 11 11 11 11 11 11 12 11 11 10 9 8
11 9 10 10 12 5 3 5 3 2 2 4 7 9 9 7 11 16 18 20 21 20 19 18 19 18 17 16 15 14 14 13 12 12 11 11 11 11 11 11 11 11 11 11 10 10 9 8 6
9 9 11 11 9 2 2 4 3 4 2 2 6 10 9 10 12 15 18 18 20 21 19 17 18 18 17 16 15 14 13 13 12 11 11 11 10 10 10 10 10 10 10 10 9 9 8 7 5
11 11 14 14 6 2 4 4 3 1 1 2 3 8 10 12 13 14 16 16 18 21 19 16 16 15 16 15 14 13 13 12 12 11 10 10 10 10 10 9 9 9 9 8 8 7 6 5 4
11 11 16 12 5 2 4 2 2 4 4 3 3 6 9 11 13 15 15 15 17 19 18 16 16 14 13 12 13 13 13 12 11 11 10 10 10 10 10 10 9 9 8 7 7 6 5 4 3
13 11 12 9 6 4 4 2 1 0 2 2 4 10 12 13 14 14 13 13 14 16 16 16 16 14 13 13 13 12 12 11 11 10 10 9 7 8 8 10 10 9 7 7 6 5 5 5 5
9 9 9 7 8 7 6 5 3 3 0 3 7 11 13 13 14 14 14 14 14 15 16 14 15 13 12 11 10 8 8 8 7 7 8 5 3 4 7 10 10 9 7 7 6 5 5 6 4
10 9 8 7 6 7 6 5 3 4 2 2 7 9 11 13 12 13 13 13 13 13 12 15 14 10 9 8 8 5 4 5 6 6 5 3 3 4 5 4 5 5 7 5 6 6 4 3 1
9 9 7 7 6 6 6 6 5 3 3 3 6 10 11 12 11 10 10 11 12 11 10 12 13 9 7 7 6 5 5 4 4 5 4 3 2 2 3 2 3 3 2 2 2 2 1 1 1
10 9 7 6 6 5 5 5 5 3 3 4 6 9 10 9 10 8 8 9 11 10 10 11 10 9 7 5 3 5 4 4 4 4 2 3 3 2 3 2 1 1 2 2 1 1 2 1 0
8 7 7 7 7 6 6 4 3 1 1 3 5 7 8 7 9 9 9 8 10 10 10 11 10 10 8 5 2 3 4 3 4 3 3 2 3 2 2 2 1 0 1 1 1 2 1 0 0
9 9 9 8 10 7 5 4 1 2 2 1 4 7 8 8 8 8 9 10 10 10 10 10 10 9 8 7 5 4 4 5 4 4 3 3 3 3 2 2 2 1 2 2 1 1 1 1 1
12 10 9 9 11 6 6 4 4 3 2 3 4 6 7 7 8 8 9 10 9 10 10 9 10 11 8 6 4 4 4 5 4 4 4 3 3 2 2 2 2 1 1 2 2 1 0 0 0
12 11 9 9 8 5 6 3 5 5 4 5 5 6 7 7 7 7 9 9 9 9 10 9 8 10 8 6 4 4 4 4 3 4 4 4 3 3 1 2 2 1 1 1 1 2 1 1 1
11 10 6 5 4 6 6 3 5 6 6 6 6 6 6 7 7 8 9 9 9 9 9 9 9 9 8 6 4 3 4 3 2 3 4 4 3 3 2 3 2 0 1 2 2 2 1 1 2
12 11 9 6 5 6 6 4 5 7 6 5 6 7 7 7 7 7 9 10 10 10 10 9 9 9 7 5 5 4 4 3 3 4 5 4 3 3 1 3 3 1 2 2 2 1 1 2 1
13 12 10 7 6 7 5 4 3 6 5 5 6 7 9 9 8 8 8 9 10 10 10 10 9 9 8 6 5 4 4 3 3 3 4 4 4 3 4 3 2 2 2 2 1 1 1 1 1
12 11 11 10 8 7 6 4 6 8 6 6 8 9 10 11 11 10 10 10 10 10 10 10 10 9 8 8 5 4 3 2 3 5 4 4 4 3 2 3 1 1 2 3 2 1 1 1 1
10 10 11 12 10 6 5 4 8 10 9 8 8 10 11 11 12 11 11 11 11 11 11 10 10 9 8 7 7 8 6 5 5 5 4 4 4 4 4 3 2 1 1 3 1 2 1 1 1
11 10 11 10 9 8 6 5 6 11 10 11 10 11 12 12 13 13 12 11 11 12 11 10 9 9 8 7 7 6 5 5 4 5 6 5 4 4 3 3 2 2 2 3 2 3 2 2 3
10 10 10 6 4 5 10 7 5 8 9 11 12 12 13 13 13 13 13 12 11 11 11 11 9 8 8 7 7 6 5 5 6 6 6 5 4 4 4 4 3 2 2 3 2 1 0 1 3
10 8 5 3 1 5 11 7 3 8 10 11 14 14 14 14 13 13 13 13 12 13 12 12 11 9 8 8 7 6 5 5 6 6 6 5 5 5 5 5 4 2 3 3 2 2 1 1 1
10 10 8 5 5 4 3 3 1 5 9 11 14 15 15 15 14 13 13 12 12 13 13 13 12 10 10 8 7 7 6 5 5 5 4 5 3 5 7 5 5 3 3 3 3 1 3 2 1
11 10 10 8 10 5 1 2 1 4 7 10 13 15 16 15 15 15 14 14 13 13 12 13 12 11 10 9 8 7 7 5 5 5 3 3 3 6 7 6 5 4 3 2 3 2 1 2 2
14 9 6 7 6 6 1 1 1 3 4 10 13 14 16 16 15 15 15 14 13 12 11 12 11 10 10 9 9 8 7 5 5 5 5 3 4 5 7 6 6 5 5 4 3 3 3 3 2
10 11 8 8 7 6 4 0 5 8 8 8 12 14 15 16 16 15 14 14 13 13 13 12 11 10 10 9 8 8 8 7 6 5 5 4 4 5 6 5 5 5 5 5 4 4 3 4 4
10 12 9 8 8 7 5 2 5 7 6 5 9 12 13 14 15 15 15 13 13 13 13 13 13 12 11 10 9 8 8 8 7 7 6 6 6 5 5 5 5 6 6 6 5 6 5 4 4
Wind_Direction
217 231 230 244 243 247 271 279 49 53 53 59 52 49 60 60 74 98 127 125 120 124 129 130 129 129 128 128 127 127 125 122 119 116 113 109 105 102 99 97 94 92 92 93 91 90 91 91 90
235 236 234 245 251 256 269 324 59 74 78 85 79 74 74 70 83 116 127 123 123 126 134 132 130 129 128 127 126 127 127 124 121 119 116 113 109 105 101 99 96 94 95 95 94 92 92 90 89
254 257 258 249 254 268 330 42 66 82 96 101 94 75 70 83 90 113 123 125 124 127 127 128 132 130 129 128 128 127 126 124 123 122 118 114 110 106 103 101 99 97 97 96 94 93 92 91 89
248 241 241 258 281 300 350 38 37 101 111 117 102 91 79 89 114 125 129 127 124 127 127 132 133 131 131 130 129 128 127 127 127 124 121 117 113 109 106 105 102 100 99 98 97 95 94 93 89
241 256 248 263 271 288 11 39 341 83 125 134 108 103 98 106 123 131 136 131 133 131 129 135 135 134 134 133 131 131 131 131 130 127 123 120 116 113 109 107 105 103 102 100 99 98 96 94 86
250 254 261 269 272 276 65 53 8 50 78 81 117 120 115 131 131 139 141 141 137 132 131 134 137 137 136 136 135 135 135 135 134 130 127 124 121 118 114 113 111 107 105 105 104 102 101 97 87
258 276 278 277 282 314 57 11 20 332 68 86 90 109 123 135 137 143 142 141 136 132 133 141 141 139 139 139 140 140 140 139 138 136 133 132 131 128 125 121 118 115 113 113 113 112 112 111 106
259 280 287 287 299 37 70 9 35 17 45 37 64 97 127 137 147 146 143 139 135 134 139 146 146 144 147 145 146 145 146 145 143 143 145 146 147 146 144 140 127 125 125 127 128 132 138 143 155
252 264 281 309 342 26 48 357 28 23 176 141 78 100 127 149 154 150 147 143 138 137 143 151 147 152 155 152 150 152 153 153 153 157 161 166 173 165 162 139 140 140 141 144 148 158 174 184 197
242 259 286 343 343 350 360 340 320 279 305 98 93 105 135 157 160 158 157 153 143 141 150 152 147 156 159 152 148 160 164 161 177 167 173 189 184 147 138 140 151 154 159 165 175 188 209 221 204
253 271 311 329 339 335 325 322 322 299 342 86 126 142 156 166 166 165 164 159 145 147 153 147 146 153 150 136 154 158 155 161 180 162 172 168 153 138 133 151 155 169 180 187 179 201 221 212 156
256 281 292 304 322 307 316 319 318 331 56 108 138 155 167 173 170 171 164 154 142 144 144 143 142 144 131 135 147 143 143 166 153 148 172 149 144 121 126 140 156 169 176 177 177 207 163 67 55
252 264 268 280 281 288 296 300 310 350 82 113 139 149 165 171 167 169 159 153 144 142 141 134 138 128 122 120 145 142 137 147 133 136 154 140 135 110 107 98 114 166 147 160 181 115 98 106 73
283 297 299 292 284 274 270 271 273 11 46 138 151 149 155 166 173 164 155 153 148 148 143 137 138 131 129 134 135 121 132 128 124 133 132 119 106 110 115 124 147 164 122 94 123 129 133 156 140
284 286 284 279 268 249 259 275 328 140 125 149 154 147 152 166 173 172 163 154 156 152 144 139 141 140 142 148 159 142 141 133 127 119 125 137 121 135 152 152 161 168 142 142 144 132 148 200 208
280 268 268 272 264 254 258 269 137 127 145 168 172 157 158 163 175 175 159 155 157 152 147 152 153 144 146 151 162 135 138 132 132 134 137 130 127 153 178 140 123 187 167 146 138 118 144 101 240
267 263 259 252 241 251 253 254 145 157 172 184 182 168 160 160 171 162 152 153 153 153 151 152 139 144 146 150 152 136 128 127 133 136 137 144 150 160 160 103 105 229 134 111 126 99 63 341 312
272 277 276 260 222 249 259 233 172 172 183 190 179 172 166 162 162 154 150 152 153 150 149 147 140 143 147 149 149 139 132 137 140 126 131 144 160 162 142 131 145 278 97 93 84 104 161 224 261
284 298 303 301 288 275 269 235 193 165 186 184 172 175 168 161 150 149 152 155 159 151 150 153 149 148 153 155 157 153 151 157 151 139 145 156 163 147 140 104 141 130 97 99 103 101 252 221 218
281 292 297 288 269 266 268 252 170 146 185 183 171 168 161 160 154 157 160 162 162 154 157 154 153 156 162 158 153 154 148 165 156 136 146 158 155 155 154 132 171 123 122 123 101 94 330 296 117
278 287 292 286 273 265 265 241 179 167 179 177 169 162 165 167 162 163 166 167 166 162 164 161 159 161 164 157 152 149 135 151 146 140 161 164 153 152 109 136 115 121 159 136 151 144 210 323 312
280 284 287 294 293 281 260 247 198 170 182 186 181 168 165 167 161 164 168 172 173 168 165 156 159 160 159 161 163 165 170 175 167 158 155 159 160 155 150 151 140 137 90 115 170 111 344 291 290
282 288 290 298 315 309 289 263 194 169 184 182 178 168 159 163 163 165 170 173 171 167 161 157 157 158 162 170 166 176 177 170 156 142 143 159 155 163 159 149 145 138 101 103 80 77 17 349 359
274 279 287 315 346 312 279 263 191 172 185 175 166 161 156 158 159 162 169 170 170 164 157 156 156 160 168 174 170 185 174 161 148 150 154 173 161 170 167 158 147 144 127 116 107 95 114 50 29
259 272 281 301 342 258 275 272 165 156 165 164 160 161 158 159 161 165 169 169 170 166 160 159 162 167 172 175 172 175 169 161 159 168 169 189 169 170 169 160 149 154 136 140 139 156 119 86 64
253 262 266 280 272 245 281 294 116 137 136 142 151 156 160 163 164 167 169 169 171 169 165 164 167 169 172 176 171 166 171 180 177 188 176 191 180 152 147 143 156 169 163 172 154 200 185 159 195
250 254 273 273 276 287 246 302 50 107 133 147 153 158 164 167 168 170 172 173 172 172 169 168 168 169 174 174 168 170 182 193 163 162 190 177 152 145 146 155 163 170 164 168 153 209 196 143 205
248 255 275 285 296 304 256 133 319 304 187 169 162 164 166 168 171 172 173 176 173 171 167 168 169 171 173 172 175 177 181 178 163 173 185 168 146 130 148 163 168 169 168 179 199 219 187 186 209
253 249 255 274 281 295 300 262 194 231 237 188 165 165 168 171 172 172 173 174 172 172 171 170 168 171 177 178 183 174 175 179 179 184 175 164 155 150 163 173 175 177 180 183 193 232 200 200 219
263 264 255 258 271 277 279 153 199 208 217 187 164 164 166 170 170 171 172 171 173 174 175 175 174 177 180 179 181 178 178 177 181 185 178 169 171 173 178 182 186 195 194 188 194 222 222 210 216